| time (UTC) | temp C | wind direction | speed KPH | gust KPH | rain 1hr cm | rain 24hr cm | rain mn cm | humidity % | barometer mb |
| 20260904222611 | 27 | 297 | 0.0 | 0.0 | 0.00 | 0.00 | 0.00 | 63 | 999.6 |
| 20260904222110 | 27 | 50 | 0.0 | 0.0 | 0.00 | 0.00 | 0.00 | 63 | 999.5 |
| 20260904221610 | 27 | 37 | 0.0 | 0.0 | 0.00 | 0.00 | 0.00 | 63 | 999.7 |
| 20260904221111 | 27 | 242 | 0.0 | 0.0 | 0.00 | 0.00 | 0.00 | 63 | 999.4 |
| 20260904220610 | 27 | 315 | 0.0 | 0.0 | 0.00 | 0.00 | 0.00 | 63 | 999.5 |
| 20260904220110 | 27 | 230 | 0.0 | 0.0 | 0.00 | 0.00 | 0.00 | 63 | 999.4 |
| 20260904215610 | 27 | 242 | 0.0 | 0.0 | 0.00 | 0.00 | 0.00 | 63 | 999.4 |
| 20260904215121 | 27 | 135 | 0.0 | 0.0 | 0.00 | 0.00 | 0.00 | 63 | 999.3 |
| 20260904214610 | 27 | 315 | 0.0 | 0.0 | 0.00 | 0.00 | 0.00 | 63 | 999.5 |
| 20260904214110 | 27 | 313 | 0.0 | 0.0 | 0.00 | 0.00 | 0.00 | 63 | 999.5 |
| 20260904213611 | 27 | 62 | 0.0 | 0.0 | 0.00 | 0.00 | 0.00 | 63 | 999.5 |
| 20260904213110 | 27 | 224 | 0.0 | 0.0 | 0.00 | 0.00 | 0.00 | 63 | 999.2 |
| 20260904212610 | 27 | 104 | 0.0 | 0.0 | 0.00 | 0.00 | 0.00 | 63 | 999.4 |
| 20260904212111 | 27 | 50 | 0.0 | 0.0 | 0.00 | 0.00 | 0.00 | 63 | 999.3 |
| 20260904211611 | 27 | 44 | 0.0 | 0.0 | 0.00 | 0.00 | 0.00 | 63 | 999.3 |
| 20260904211110 | 27 | 309 | 0.0 | 0.0 | 0.00 | 0.00 | 0.00 | 63 | 999.2 |
| 20260904210610 | 27 | 44 | 0.0 | 0.0 | 0.00 | 0.00 | 0.00 | 63 | 999.3 |
| 20260904210110 | 27 | 255 | 0.0 | 0.0 | 0.00 | 0.00 | 0.00 | 63 | 999.3 |
| 20260904205612 | 27 | 322 | 0.0 | 0.0 | 0.00 | 0.00 | 0.00 | 63 | 999.1 |
| 20260904205110 | 27 | 315 | 0.0 | 0.0 | 0.00 | 0.00 | 0.00 | 63 | 999.2 |
| 20260904204610 | 27 | 284 | 0.0 | 0.0 | 0.00 | 0.00 | 0.00 | 63 | 999.3 |
| 20260904204110 | 27 | 264 | 0.0 | 0.0 | 0.00 | 0.00 | 0.00 | 63 | 999.2 |
| 20260904203611 | 27 | 224 | 0.0 | 0.0 | 0.00 | 0.00 | 0.00 | 63 | 999.1 |
| 20260904203110 | 27 | 309 | 0.0 | 0.0 | 0.00 | 0.00 | 0.00 | 63 | 999.3 |
| 20260904202611 | 27 | 283 | 0.0 | 0.0 | 0.00 | 0.00 | 0.00 | 63 | 999.1 |
| 20260904202110 | 27 | 224 | 0.0 | 0.0 | 0.00 | 0.00 | 0.00 | 63 | 999.2 |
| 20260904201612 | 27 | 311 | 0.0 | 0.0 | 0.00 | 0.00 | 0.00 | 63 | 999.1 |
| 20260904201110 | 27 | 224 | 0.0 | 0.0 | 0.00 | 0.00 | 0.00 | 63 | 999.1 |
| 20260904200610 | 27 | 224 | 0.0 | 0.0 | 0.00 | 0.00 | 0.00 | 63 | 999.2 |
| 20260904200110 | 27 | 89 | 0.0 | 0.0 | 0.00 | 0.00 | 0.00 | 63 | 999.1 |
| 20260904195612 | 27 | 230 | 0.0 | 0.0 | 0.00 | 0.00 | 0.00 | 63 | 999.1 |
| 20260904195110 | 27 | 322 | 0.0 | 0.0 | 0.00 | 0.00 | 0.00 | 63 | 999.0 |
| 20260904194610 | 27 | 182 | 0.0 | 0.0 | 0.00 | 0.00 | 0.00 | 63 | 998.9 |
| 20260904194110 | 27 | 304 | 0.0 | 0.0 | 0.00 | 0.00 | 0.00 | 63 | 999.0 |
| 20260904193611 | 27 | 284 | 0.0 | 0.0 | 0.00 | 0.00 | 0.00 | 63 | 999.1 |
| 20260904193110 | 27 | 302 | 0.0 | 0.0 | 0.00 | 0.00 | 0.00 | 62 | 999.0 |
| 20260904192610 | 27 | 316 | 0.0 | 0.0 | 0.00 | 0.00 | 0.00 | 63 | 998.9 |
| 20260904192111 | 26 | 135 | 0.0 | 0.0 | 0.00 | 0.00 | 0.00 | 62 | 999.0 |
| 20260904191611 | 26 | 315 | 0.0 | 0.0 | 0.00 | 0.00 | 0.00 | 62 | 999.0 |
| 20260904191111 | 26 | 315 | 0.0 | 0.0 | 0.00 | 0.00 | 0.00 | 62 | 998.9 |
| 20260904190611 | 26 | 297 | 0.0 | 0.0 | 0.00 | 0.00 | 0.00 | 62 | 998.8 |
| 20260904190110 | 26 | 246 | 0.0 | 0.0 | 0.00 | 0.00 | 0.00 | 62 | 998.8 |
| 20260904185611 | 26 | 315 | 0.0 | 0.0 | 0.00 | 0.00 | 0.00 | 62 | 998.7 |
| 20260904185111 | 26 | 242 | 0.0 | 0.0 | 0.00 | 0.00 | 0.00 | 62 | 998.7 |
| 20260904184610 | 26 | 242 | 0.0 | 0.0 | 0.00 | 0.00 | 0.00 | 62 | 998.6 |
| 20260904184110 | 26 | 333 | 0.0 | 0.0 | 0.00 | 0.00 | 0.00 | 62 | 998.8 |
| 20260904183612 | 26 | 315 | 0.0 | 0.0 | 0.00 | 0.00 | 0.00 | 62 | 998.8 |
| 20260904183111 | 26 | 284 | 0.0 | 0.0 | 0.00 | 0.00 | 0.00 | 62 | 998.8 |
| 20260904182611 | 26 | 293 | 0.0 | 0.0 | 0.00 | 0.00 | 0.00 | 62 | 998.8 |
| 20260904182111 | 26 | 242 | 0.0 | 0.0 | 0.00 | 0.00 | 0.00 | 62 | 998.8 |
| 20260904181611 | 26 | 230 | 0.0 | 0.0 | 0.00 | 0.00 | 0.00 | 62 | 998.8 |
| 20260904181110 | 26 | 333 | 0.0 | 0.0 | 0.00 | 0.00 | 0.00 | 62 | 998.9 |
| 20260904180611 | 26 | 246 | 0.0 | 0.0 | 0.00 | 0.00 | 0.00 | 61 | 999.0 |
| 20260904180110 | 26 | 322 | 0.0 | 0.0 | 0.00 | 0.00 | 0.00 | 61 | 999.0 |
| 20260904175611 | 26 | 129 | 0.0 | 0.0 | 0.00 | 0.00 | 0.00 | 61 | 999.0 |
| 20260904175111 | 26 | 322 | 0.0 | 0.0 | 0.00 | 0.00 | 0.00 | 61 | 999.1 |
| 20260904174611 | 26 | 217 | 0.0 | 0.0 | 0.00 | 0.00 | 0.00 | 61 | 999.1 |
| 20260904174111 | 26 | 217 | 0.0 | 0.0 | 0.00 | 0.00 | 0.00 | 61 | 999.3 |
| 20260904173611 | 26 | 40 | 0.0 | 0.0 | 0.00 | 0.00 | 0.00 | 61 | 999.2 |
| 20260904173111 | 26 | 75 | 0.0 | 0.0 | 0.00 | 0.00 | 0.00 | 61 | 999.1 |
| 20260904172610 | 26 | 304 | 0.0 | 0.0 | 0.00 | 0.00 | 0.00 | 61 | 999.3 |
| 20260904172111 | 26 | 44 | 0.0 | 0.0 | 0.00 | 0.00 | 0.00 | 61 | 999.2 |
| 20260904171612 | 26 | 292 | 0.0 | 0.0 | 0.00 | 0.00 | 0.00 | 61 | 999.3 |
| 20260904171111 | 26 | 315 | 0.0 | 0.0 | 0.00 | 0.00 | 0.00 | 61 | 999.0 |
| 20260904170611 | 26 | 283 | 0.0 | 0.0 | 0.00 | 0.00 | 0.00 | 61 | 999.4 |
| 20260904170110 | 26 | 322 | 0.0 | 0.0 | 0.00 | 0.00 | 0.00 | 61 | 999.5 |
| 20260904165612 | 26 | 309 | 0.0 | 0.0 | 0.00 | 0.00 | 0.00 | 61 | 999.4 |
| 20260904165110 | 26 | 322 | 0.0 | 0.0 | 0.00 | 0.00 | 0.00 | 61 | 999.5 |
| 20260904164611 | 26 | 315 | 0.0 | 0.0 | 0.00 | 0.00 | 0.00 | 61 | 999.5 |
| 20260904164111 | 26 | 37 | 0.0 | 0.0 | 0.00 | 0.00 | 0.00 | 61 | 999.6 |
| 20260904163612 | 26 | 62 | 0.0 | 0.0 | 0.00 | 0.00 | 0.00 | 61 | 999.5 |
| 20260904163111 | 26 | 297 | 0.0 | 0.0 | 0.00 | 0.00 | 0.00 | 61 | 999.5 |
| 20260904162611 | 26 | 44 | 0.0 | 0.0 | 0.00 | 0.00 | 0.00 | 60 | 999.5 |
| 20260904162110 | 26 | 315 | 0.0 | 0.0 | 0.00 | 0.00 | 0.00 | 60 | 999.3 |
| 20260904161612 | 26 | 62 | 0.0 | 0.0 | 0.00 | 0.00 | 0.00 | 60 | 999.4 |
| 20260904161111 | 26 | 50 | 0.0 | 0.0 | 0.00 | 0.00 | 0.00 | 60 | 999.3 |
| 20260904160610 | 26 | 44 | 0.0 | 0.0 | 0.00 | 0.00 | 0.00 | 60 | 999.4 |
| 20260904160111 | 26 | 321 | 0.0 | 0.0 | 0.00 | 0.00 | 0.00 | 59 | 999.6 |
| 20260904155611 | 26 | 243 | 0.0 | 0.0 | 0.00 | 0.00 | 0.00 | 59 | 999.4 |
| 20260904155110 | 26 | 297 | 0.0 | 0.0 | 0.00 | 0.00 | 0.00 | 59 | 999.5 |
| 20260904154611 | 26 | 284 | 0.0 | 0.0 | 0.00 | 0.00 | 0.00 | 59 | 999.6 |
| 20260904154111 | 26 | 322 | 0.0 | 0.0 | 0.00 | 0.00 | 0.00 | 58 | 999.7 |
| 20260904153612 | 26 | 224 | 0.0 | 0.0 | 0.00 | 0.00 | 0.00 | 58 | 999.7 |
| 20260904153111 | 26 | 129 | 0.0 | 0.0 | 0.00 | 0.00 | 0.00 | 58 | 999.6 |
| 20260904152611 | 26 | 255 | 0.0 | 0.0 | 0.00 | 0.00 | 0.00 | 57 | 999.5 |
| 20260904152111 | 26 | 309 | 0.0 | 0.0 | 0.00 | 0.00 | 0.00 | 57 | 999.6 |
| 20260904151612 | 26 | 309 | 0.0 | 0.0 | 0.00 | 0.00 | 0.00 | 57 | 999.7 |
| 20260904151111 | 26 | 224 | 0.0 | 0.0 | 0.00 | 0.00 | 0.00 | 57 | 999.5 |
| 20260904150611 | 26 | 284 | 0.0 | 0.0 | 0.00 | 0.00 | 0.00 | 57 | 999.6 |
| 20260904150111 | 26 | 315 | 0.0 | 0.0 | 0.00 | 0.00 | 0.00 | 57 | 999.8 |
| 20260904145612 | 26 | 135 | 0.0 | 0.0 | 0.00 | 0.00 | 0.00 | 56 | 999.7 |
| 20260904145111 | 26 | 315 | 0.0 | 0.0 | 0.00 | 0.00 | 0.00 | 57 | 999.7 |
| 20260904144612 | 26 | 304 | 0.0 | 0.0 | 0.00 | 0.00 | 0.00 | 56 | 999.8 |
| 20260904144111 | 26 | 242 | 0.0 | 0.0 | 0.00 | 0.00 | 0.00 | 56 | 1000.0 |
| 20260904143612 | 26 | 309 | 0.0 | 0.0 | 0.00 | 0.00 | 0.00 | 56 | 1000.0 |
| 20260904143112 | 26 | 283 | 0.0 | 0.0 | 0.00 | 0.00 | 0.00 | 56 | 999.9 |
| 20260904142611 | 26 | 315 | 0.0 | 0.0 | 0.00 | 0.00 | 0.00 | 56 | 999.9 |
| 20260904142111 | 26 | 230 | 0.0 | 0.0 | 0.00 | 0.00 | 0.00 | 56 | 999.9 |
| 20260904141612 | 26 | 322 | 0.0 | 0.0 | 0.00 | 0.00 | 0.00 | 56 | 999.9 |
| 20260904141111 | 26 | 297 | 0.0 | 0.0 | 0.00 | 0.00 | 0.00 | 56 | 999.8 |
| 20260904140611 | 26 | 309 | 0.0 | 0.0 | 0.00 | 0.00 | 0.00 | 56 | 999.7 |
| 20260904140111 | 26 | 249 | 0.0 | 0.0 | 0.00 | 0.00 | 0.00 | 56 | 999.6 |
| 20260904135612 | 26 | 315 | 0.0 | 0.0 | 0.00 | 0.00 | 0.00 | 56 | 1000.0 |
| 20260904135112 | 26 | 322 | 0.0 | 0.0 | 0.00 | 0.00 | 0.00 | 56 | 999.9 |
| 20260904134610 | 26 | 249 | 0.0 | 0.0 | 0.00 | 0.00 | 0.00 | 56 | 999.6 |
| 20260904134111 | 26 | 50 | 0.0 | 0.0 | 0.00 | 0.00 | 0.00 | 56 | 999.7 |
| 20260904133612 | 26 | 269 | 0.0 | 0.0 | 0.00 | 0.00 | 0.00 | 56 | 999.6 |
| 20260904133111 | 26 | 217 | 0.0 | 0.0 | 0.00 | 0.00 | 0.00 | 56 | 999.6 |
| 20260904132610 | 26 | 309 | 0.0 | 0.0 | 0.00 | 0.00 | 0.00 | 56 | 999.6 |
| 20260904132110 | 25 | 326 | 0.0 | 0.0 | 0.00 | 0.00 | 0.00 | 56 | 999.5 |
| 20260904131612 | 25 | 269 | 0.0 | 0.0 | 0.00 | 0.00 | 0.00 | 55 | 999.4 |
| 20260904131110 | 25 | 269 | 0.0 | 0.0 | 0.00 | 0.00 | 0.00 | 55 | 999.2 |
| 20260904130611 | 25 | 255 | 0.0 | 0.0 | 0.00 | 0.00 | 0.00 | 55 | 999.4 |
| 20260904130111 | 25 | 309 | 0.0 | 0.0 | 0.00 | 0.00 | 0.00 | 55 | 999.3 |
| 20260904125612 | 25 | 309 | 0.0 | 0.0 | 0.00 | 0.00 | 0.00 | 55 | 999.2 |
| 20260904125111 | 25 | 299 | 0.0 | 0.0 | 0.00 | 0.00 | 0.00 | 55 | 999.2 |
| 20260904124611 | 25 | 315 | 0.0 | 0.0 | 0.00 | 0.00 | 0.00 | 55 | 999.3 |
| 20260904124111 | 25 | 315 | 0.0 | 0.0 | 0.00 | 0.00 | 0.00 | 55 | 999.1 |
| 20260904123613 | 25 | 333 | 0.0 | 0.0 | 0.00 | 0.00 | 0.00 | 55 | 999.0 |
| 20260904123111 | 25 | 309 | 0.0 | 0.0 | 0.00 | 0.00 | 0.00 | 55 | 999.0 |
| 20260904122611 | 25 | 312 | 0.0 | 0.0 | 0.00 | 0.00 | 0.00 | 54 | 998.8 |
| 20260904122111 | 25 | 224 | 0.0 | 0.0 | 0.00 | 0.00 | 0.00 | 54 | 998.8 |
| 20260904121612 | 25 | 284 | 0.0 | 0.0 | 0.00 | 0.00 | 0.00 | 54 | 998.5 |
| 20260904121111 | 25 | 25 | 0.0 | 0.0 | 0.00 | 0.00 | 0.00 | 54 | 998.7 |
| 20260904120613 | 25 | 315 | 0.0 | 0.0 | 0.00 | 0.00 | 0.00 | 53 | 998.5 |
| 20260904120111 | 25 | 235 | 0.0 | 0.0 | 0.00 | 0.00 | 0.00 | 53 | 998.4 |
| 20260904115612 | 25 | 309 | 0.0 | 0.0 | 0.00 | 0.00 | 0.00 | 53 | 998.4 |
| 20260904115112 | 25 | 297 | 0.0 | 0.0 | 0.00 | 0.00 | 0.00 | 53 | 998.3 |
| 20260904114611 | 25 | 284 | 0.0 | 0.0 | 0.00 | 0.00 | 0.00 | 52 | 998.2 |
| 20260904114111 | 25 | 31 | 0.0 | 0.0 | 0.00 | 0.00 | 0.00 | 52 | 998.2 |
| 20260904113612 | 25 | 315 | 0.0 | 0.0 | 0.00 | 0.00 | 0.00 | 52 | 998.1 |
| 20260904113111 | 25 | 297 | 0.0 | 0.0 | 0.00 | 0.00 | 0.00 | 51 | 997.9 |
| 20260904112611 | 25 | 309 | 0.0 | 0.0 | 0.00 | 0.00 | 0.00 | 52 | 998.0 |
| 20260904112111 | 25 | 309 | 0.0 | 0.0 | 0.00 | 0.00 | 0.00 | 51 | 998.1 |
| 20260904111612 | 25 | 284 | 0.0 | 0.0 | 0.00 | 0.00 | 0.00 | 51 | 997.9 |
| 20260904111111 | 25 | 242 | 0.0 | 0.0 | 0.00 | 0.00 | 0.00 | 51 | 997.8 |
| 20260904110611 | 25 | 44 | 0.0 | 0.0 | 0.00 | 0.00 | 0.00 | 51 | 997.8 |
| 20260904110111 | 25 | 297 | 0.0 | 0.0 | 0.00 | 0.00 | 0.00 | 51 | 997.8 |
| 20260904105612 | 25 | 307 | 0.0 | 0.0 | 0.00 | 0.00 | 0.00 | 51 | 997.7 |
| 20260904105111 | 25 | 326 | 0.0 | 0.0 | 0.00 | 0.00 | 0.00 | 51 | 997.6 |
| 20260904104611 | 25 | 62 | 0.0 | 0.0 | 0.00 | 0.00 | 0.00 | 50 | 997.5 |
| 20260904104111 | 25 | 297 | 0.0 | 0.0 | 0.00 | 0.00 | 0.00 | 50 | 997.4 |
| 20260904103613 | 25 | 30 | 0.0 | 0.0 | 0.00 | 0.00 | 0.00 | 50 | 997.5 |
| 20260904103111 | 25 | 142 | 0.0 | 0.0 | 0.00 | 0.00 | 0.00 | 50 | 997.4 |
| 20260904102611 | 25 | 315 | 0.0 | 0.0 | 0.00 | 0.00 | 0.00 | 50 | 997.2 |
| 20260904102111 | 25 | 43 | 0.0 | 0.0 | 0.00 | 0.00 | 0.00 | 50 | 997.5 |
| 20260904101612 | 25 | 304 | 0.0 | 0.0 | 0.00 | 0.00 | 0.00 | 50 | 997.4 |
| 20260904101112 | 25 | 75 | 0.0 | 0.0 | 0.00 | 0.00 | 0.00 | 50 | 997.4 |
| 20260904100610 | 25 | 283 | 0.0 | 0.0 | 0.00 | 0.00 | 0.00 | 50 | 997.2 |
| 20260904100110 | 25 | 306 | 0.0 | 0.0 | 0.00 | 0.00 | 0.00 | 50 | 997.3 |
| 20260904095611 | 25 | 297 | 0.0 | 0.0 | 0.00 | 0.00 | 0.00 | 50 | 997.2 |
| 20260904095111 | 25 | 269 | 0.0 | 0.0 | 0.00 | 0.00 | 0.00 | 50 | 997.1 |
| 20260904094610 | 25 | 284 | 0.0 | 0.0 | 0.00 | 0.00 | 0.00 | 51 | 997.1 |
| 20260904094110 | 25 | 269 | 0.0 | 0.0 | 0.00 | 0.00 | 0.00 | 51 | 997.2 |
| 20260904093610 | 25 | 315 | 0.0 | 0.0 | 0.00 | 0.00 | 0.00 | 51 | 997.0 |
| 20260904093110 | 25 | 269 | 0.0 | 0.0 | 0.00 | 0.00 | 0.00 | 51 | 997.1 |
| 20260904092610 | 25 | 315 | 0.0 | 0.0 | 0.00 | 0.00 | 0.00 | 51 | 996.9 |
| 20260904092110 | 25 | 299 | 0.0 | 0.0 | 0.00 | 0.00 | 0.00 | 51 | 996.9 |
| 20260904091111 | 25 | 283 | 0.0 | 0.0 | 0.00 | 0.00 | 0.00 | 51 | 996.8 |
| 20260904090611 | 25 | 309 | 0.0 | 0.0 | 0.00 | 0.00 | 0.00 | 51 | 996.7 |
| 20260904090111 | 25 | 235 | 0.0 | 0.0 | 0.00 | 0.00 | 0.00 | 51 | 996.8 |
| 20260904085611 | 25 | 299 | 0.0 | 0.0 | 0.00 | 0.00 | 0.00 | 51 | 996.6 |
| 20260904085111 | 25 | 22 | 0.0 | 0.0 | 0.00 | 0.00 | 0.00 | 51 | 996.6 |
| 20260904084615 | 25 | 275 | 0.0 | 0.0 | 0.00 | 0.00 | 0.00 | 51 | 996.6 |
| 20260904084110 | 25 | 346 | 0.0 | 0.0 | 0.00 | 0.00 | 0.00 | 51 | 996.6 |
| 20260904083610 | 25 | 44 | 0.0 | 0.0 | 0.00 | 0.00 | 0.00 | 51 | 996.5 |
| 20260904083110 | 25 | 339 | 0.0 | 0.0 | 0.00 | 0.00 | 0.00 | 51 | 996.5 |
| 20260904082610 | 25 | 32 | 0.0 | 0.0 | 0.00 | 0.00 | 0.00 | 51 | 996.4 |
| 20260904082111 | 25 | 310 | 0.0 | 0.0 | 0.00 | 0.00 | 0.00 | 51 | 996.3 |
| 20260904081610 | 25 | 297 | 0.0 | 0.0 | 0.00 | 0.00 | 0.00 | 51 | 996.0 |
| 20260904081113 | 25 | 315 | 0.0 | 0.0 | 0.00 | 0.00 | 0.00 | 51 | 996.5 |
| 20260904080611 | 25 | 275 | 0.0 | 0.0 | 0.00 | 0.00 | 0.00 | 51 | 996.4 |
| 20260904080112 | 25 | 315 | 0.0 | 0.0 | 0.00 | 0.00 | 0.00 | 52 | 996.3 |
| 20260904074611 | 25 | 37 | 0.0 | 0.0 | 0.00 | 0.00 | 0.00 | 52 | 996.4 |
| 20260904074112 | 25 | 257 | 0.0 | 0.0 | 0.00 | 0.00 | 0.00 | 52 | 996.3 |
| 20260904073610 | 25 | 255 | 0.0 | 0.0 | 0.00 | 0.00 | 0.00 | 52 | 996.3 |
| 20260904073111 | 25 | 309 | 0.0 | 0.0 | 0.00 | 0.00 | 0.00 | 52 | 996.1 |
| 20260904072611 | 25 | 235 | 0.0 | 0.0 | 0.00 | 0.00 | 0.00 | 52 | 996.3 |
| 20260904072111 | 25 | 284 | 0.0 | 0.0 | 0.00 | 0.00 | 0.00 | 52 | 996.4 |
| 20260904071611 | 25 | 52 | 0.0 | 0.0 | 0.00 | 0.00 | 0.00 | 52 | 996.2 |
| 20260904071111 | 25 | 290 | 0.0 | 0.0 | 0.00 | 0.00 | 0.00 | 52 | 996.4 |
| 20260904070611 | 25 | 297 | 0.0 | 0.0 | 0.00 | 0.00 | 0.00 | 53 | 996.2 |
| 20260904070111 | 25 | 304 | 0.0 | 0.0 | 0.00 | 0.00 | 0.00 | 52 | 996.2 |
| 20260904065611 | 25 | 309 | 0.0 | 0.0 | 0.00 | 0.00 | 0.00 | 52 | 996.3 |
| 20260904065111 | 25 | 333 | 0.0 | 0.0 | 0.00 | 0.00 | 0.00 | 52 | 996.2 |
| 20260904064611 | 25 | 293 | 0.0 | 0.0 | 0.00 | 0.00 | 0.00 | 53 | 996.2 |
| 20260904064116 | 25 | 235 | 0.0 | 0.0 | 0.00 | 0.00 | 0.00 | 53 | 996.2 |
| 20260904063611 | 25 | 224 | 0.0 | 0.0 | 0.00 | 0.00 | 0.00 | 53 | 996.3 |
| 20260904063111 | 25 | 297 | 0.0 | 0.0 | 0.00 | 0.00 | 0.00 | 53 | 996.3 |
| 20260904062611 | 25 | 282 | 0.0 | 0.0 | 0.00 | 0.00 | 0.00 | 53 | 996.4 |
| 20260904062115 | 25 | 294 | 0.0 | 0.0 | 0.00 | 0.00 | 0.00 | 53 | 996.3 |
| 20260904061611 | 25 | 315 | 0.0 | 0.0 | 0.00 | 0.00 | 0.00 | 53 | 996.2 |
| 20260904061111 | 25 | 266 | 0.0 | 0.0 | 0.00 | 0.00 | 0.00 | 53 | 996.5 |
| 20260904060611 | 25 | 315 | 0.0 | 0.0 | 0.00 | 0.00 | 0.00 | 53 | 996.5 |
| 20260904055111 | 25 | 135 | 0.0 | 0.0 | 0.00 | 0.00 | 0.00 | 54 | 996.5 |
| 20260904054611 | 25 | 297 | 0.0 | 0.0 | 0.00 | 0.00 | 0.00 | 53 | 996.4 |
| 20260904054111 | 25 | 224 | 0.0 | 0.0 | 0.00 | 0.00 | 0.00 | 53 | 996.4 |
| 20260904053611 | 25 | 297 | 0.0 | 0.0 | 0.00 | 0.00 | 0.00 | 53 | 996.6 |
| 20260904053111 | 25 | 299 | 0.0 | 0.0 | 0.00 | 0.00 | 0.00 | 52 | 996.8 |
| 20260904052611 | 25 | 37 | 0.0 | 0.0 | 0.00 | 0.00 | 0.00 | 52 | 996.6 |
| 20260904052111 | 25 | 235 | 0.0 | 0.0 | 0.00 | 0.00 | 0.00 | 52 | 996.6 |
| 20260904051611 | 25 | 44 | 0.0 | 0.0 | 0.00 | 0.00 | 0.00 | 52 | 996.6 |
| 20260904051111 | 25 | 242 | 0.0 | 0.0 | 0.00 | 0.00 | 0.00 | 52 | 996.7 |
| 20260904050611 | 25 | 37 | 0.0 | 0.0 | 0.00 | 0.00 | 0.00 | 52 | 996.6 |
| 20260904050113 | 26 | 309 | 0.0 | 0.0 | 0.00 | 0.00 | 0.00 | 51 | 996.8 |
| 20260904045611 | 26 | 269 | 0.0 | 0.0 | 0.00 | 0.00 | 0.00 | 51 | 996.7 |
| 20260904045111 | 26 | 315 | 0.0 | 0.0 | 0.00 | 0.00 | 0.00 | 52 | 996.8 |
| 20260904044611 | 26 | 224 | 0.0 | 0.0 | 0.00 | 0.00 | 0.00 | 51 | 997.0 |
| 20260904044111 | 26 | 315 | 0.0 | 0.0 | 0.00 | 0.00 | 0.00 | 52 | 997.1 |
| 20260904043611 | 26 | 254 | 0.0 | 0.0 | 0.00 | 0.00 | 0.00 | 52 | 997.1 |
| 20260904043111 | 26 | 309 | 0.0 | 0.0 | 0.00 | 0.00 | 0.00 | 53 | 996.9 |
| 20260904042611 | 26 | 246 | 0.0 | 0.0 | 0.00 | 0.00 | 0.00 | 53 | 997.3 |
| 20260904042111 | 26 | 297 | 0.0 | 0.0 | 0.00 | 0.00 | 0.00 | 53 | 997.3 |
| 20260904041611 | 26 | 309 | 0.0 | 0.0 | 0.00 | 0.00 | 0.00 | 53 | 997.1 |
| 20260904041111 | 26 | 306 | 0.0 | 0.0 | 0.00 | 0.00 | 0.00 | 52 | 997.2 |
| 20260904040611 | 26 | 269 | 0.0 | 0.0 | 0.00 | 0.00 | 0.00 | 51 | 997.3 |
| 20260904040111 | 26 | 284 | 0.0 | 0.0 | 0.00 | 0.00 | 0.00 | 52 | 997.3 |
| 20260904035611 | 26 | 315 | 0.0 | 0.0 | 0.00 | 0.00 | 0.00 | 51 | 997.6 |
| 20260904035111 | 26 | 117 | 0.0 | 0.0 | 0.00 | 0.00 | 0.00 | 51 | 997.3 |
| 20260904034611 | 26 | 293 | 0.0 | 0.0 | 0.00 | 0.00 | 0.00 | 52 | 997.3 |
| 20260904034111 | 26 | 44 | 0.0 | 0.0 | 0.00 | 0.00 | 0.00 | 51 | 997.5 |
| 20260904033611 | 26 | 224 | 0.0 | 0.0 | 0.00 | 0.00 | 0.00 | 51 | 997.5 |
| 20260904033111 | 26 | 281 | 0.0 | 0.0 | 0.00 | 0.00 | 0.00 | 52 | 997.5 |
| 20260904032610 | 26 | 322 | 0.0 | 0.0 | 0.00 | 0.00 | 0.00 | 52 | 997.7 |
| 20260904032111 | 26 | 135 | 0.0 | 0.0 | 0.00 | 0.00 | 0.00 | 52 | 997.6 |
| 20260904031611 | 26 | 44 | 0.0 | 0.0 | 0.00 | 0.00 | 0.00 | 52 | 997.6 |
| 20260904031111 | 26 | 326 | 0.0 | 0.0 | 0.00 | 0.00 | 0.00 | 52 | 997.8 |
| 20260904030611 | 26 | 293 | 0.0 | 0.0 | 0.00 | 0.00 | 0.00 | 52 | 997.7 |
| 20260904030111 | 26 | 242 | 0.0 | 0.0 | 0.00 | 0.00 | 0.00 | 53 | 997.6 |
| 20260904025611 | 26 | 333 | 0.0 | 0.0 | 0.00 | 0.00 | 0.00 | 52 | 997.9 |
| 20260904025111 | 26 | 135 | 0.0 | 0.0 | 0.00 | 0.00 | 0.00 | 52 | 997.6 |
| 20260904024611 | 26 | 315 | 0.0 | 0.0 | 0.00 | 0.00 | 0.00 | 52 | 997.7 |
| 20260904024111 | 26 | 242 | 0.0 | 0.0 | 0.00 | 0.00 | 0.00 | 53 | 997.8 |
| 20260904023611 | 26 | 230 | 0.0 | 0.0 | 0.00 | 0.00 | 0.00 | 53 | 997.6 |
| 20260904023111 | 26 | 217 | 0.0 | 0.0 | 0.00 | 0.00 | 0.00 | 53 | 997.8 |
| 20260904022611 | 26 | 269 | 0.0 | 0.0 | 0.00 | 0.00 | 0.00 | 53 | 997.8 |
| 20260904022111 | 26 | 224 | 0.0 | 0.0 | 0.00 | 0.00 | 0.00 | 53 | 997.6 |
| 20260904021611 | 26 | 293 | 0.0 | 0.0 | 0.00 | 0.00 | 0.00 | 53 | 997.7 |
| 20260904021111 | 26 | 44 | 0.0 | 0.0 | 0.00 | 0.00 | 0.00 | 54 | 997.7 |
| 20260904020611 | 26 | 304 | 0.0 | 0.0 | 0.00 | 0.00 | 0.00 | 54 | 997.6 |
| 20260904020111 | 26 | 304 | 0.0 | 0.0 | 0.00 | 0.00 | 0.00 | 54 | 997.5 |
| 20260904015611 | 26 | 306 | 0.0 | 0.0 | 0.00 | 0.00 | 0.00 | 55 | 997.5 |
| 20260904015111 | 26 | 322 | 0.0 | 0.0 | 0.00 | 0.00 | 0.00 | 54 | 997.5 |
| 20260904014612 | 26 | 269 | 0.0 | 0.0 | 0.00 | 0.00 | 0.00 | 56 | 997.3 |
| 20260904014111 | 26 | 299 | 0.0 | 0.0 | 0.00 | 0.00 | 0.00 | 57 | 997.5 |
| 20260904013611 | 26 | 212 | 0.0 | 0.0 | 0.00 | 0.00 | 0.00 | 55 | 997.2 |
| 20260904013111 | 26 | 44 | 0.0 | 0.0 | 0.00 | 0.00 | 0.00 | 57 | 997.5 |
| 20260904012611 | 26 | 233 | 0.0 | 0.0 | 0.00 | 0.00 | 0.00 | 58 | 997.5 |
| 20260904012111 | 26 | 240 | 0.0 | 0.0 | 0.00 | 0.00 | 0.00 | 58 | 997.4 |
| 20260904011611 | 26 | 246 | 0.0 | 0.0 | 0.00 | 0.00 | 0.00 | 59 | 997.5 |
| 20260904011111 | 26 | 126 | 0.0 | 0.0 | 0.00 | 0.00 | 0.00 | 59 | 997.5 |
| 20260904010612 | 26 | 117 | 0.0 | 0.0 | 0.00 | 0.00 | 0.00 | 60 | 997.5 |
| 20260904010112 | 26 | 315 | 0.0 | 0.0 | 0.00 | 0.00 | 0.00 | 60 | 997.4 |
| 20260904005611 | 26 | 25 | 0.0 | 0.0 | 0.00 | 0.00 | 0.00 | 59 | 997.4 |
| 20260904005111 | 26 | 44 | 0.0 | 0.0 | 0.00 | 0.00 | 0.00 | 58 | 997.2 |
| 20260904004611 | 26 | 297 | 0.0 | 0.0 | 0.00 | 0.00 | 0.00 | 57 | 997.3 |
| 20260904004111 | 26 | 37 | 0.0 | 0.0 | 0.00 | 0.00 | 0.00 | 57 | 997.3 |
| 20260904003611 | 26 | 44 | 0.0 | 0.0 | 0.00 | 0.00 | 0.00 | 58 | 997.3 |
| 20260904003111 | 26 | 44 | 0.0 | 0.0 | 0.00 | 0.00 | 0.00 | 57 | 997.4 |
| 20260904002611 | 26 | 50 | 0.0 | 0.0 | 0.00 | 0.00 | 0.00 | 58 | 997.1 |
| 20260904002111 | 27 | 315 | 0.0 | 0.0 | 0.00 | 0.00 | 0.00 | 59 | 997.2 |
| 20260904001611 | 27 | 239 | 0.0 | 0.0 | 0.00 | 0.00 | 0.00 | 60 | 996.7 |
| 20260904001111 | 27 | 283 | 0.0 | 0.0 | 0.00 | 0.00 | 0.00 | 61 | 997.0 |
| 20260904000611 | 27 | 37 | 0.0 | 0.0 | 0.00 | 0.00 | 0.00 | 65 | 997.0 |
| 20260904000111 | 27 | 279 | 0.0 | 0.0 | 0.00 | 0.00 | 0.00 | 66 | 996.9 |
| 20260903235611 | 27 | 224 | 0.0 | 0.0 | 0.00 | 0.00 | 0.00 | 66 | 997.1 |
| 20260903235111 | 27 | 297 | 0.0 | 0.0 | 0.00 | 0.00 | 0.00 | 66 | 997.0 |
| 20260903234611 | 27 | 269 | 0.0 | 0.0 | 0.00 | 0.00 | 0.00 | 66 | 997.1 |
| 20260903234111 | 27 | 44 | 0.0 | 0.0 | 0.00 | 0.00 | 0.00 | 66 | 996.8 |
| 20260903233611 | 27 | 242 | 0.0 | 0.0 | 0.00 | 0.00 | 0.00 | 65 | 996.9 |
| 20260903233111 | 27 | 287 | 0.0 | 0.0 | 0.00 | 0.00 | 0.00 | 65 | 996.7 |
| 20260903232611 | 27 | 30 | 0.0 | 0.0 | 0.00 | 0.00 | 0.00 | 65 | 996.7 |
| 20260903232111 | 27 | 255 | 0.0 | 0.0 | 0.00 | 0.00 | 0.00 | 65 | 996.5 |
| 20260903231611 | 27 | 325 | 0.0 | 0.0 | 0.00 | 0.00 | 0.00 | 65 | 996.4 |
| 20260903231111 | 27 | 44 | 0.0 | 0.0 | 0.00 | 0.00 | 0.00 | 65 | 996.5 |
| 20260903230611 | 27 | 25 | 0.0 | 0.0 | 0.00 | 0.00 | 0.00 | 65 | 996.4 |
| 20260903230111 | 27 | 343 | 0.0 | 0.0 | 0.00 | 0.00 | 0.00 | 65 | 996.1 |
| 20260903225611 | 27 | 129 | 0.0 | 0.0 | 0.00 | 0.00 | 0.00 | 65 | 996.2 |
| 20260903225110 | 27 | 124 | 0.0 | 0.0 | 0.00 | 0.00 | 0.00 | 65 | 996.3 |
| 20260903224611 | 27 | 322 | 0.0 | 0.0 | 0.00 | 0.00 | 0.00 | 65 | 996.0 |
| 20260903224111 | 27 | 269 | 0.0 | 0.0 | 0.00 | 0.00 | 0.00 | 65 | 996.0 |
| 20260903223611 | 27 | 309 | 0.0 | 0.0 | 0.00 | 0.00 | 0.00 | 65 | 996.0 |
| 20260903223111 | 27 | 283 | 0.0 | 0.0 | 0.00 | 0.00 | 0.00 | 65 | 996.0 |